{"data":{"norad_id":57511,"epoch":"2026-05-25T03:57:18.146304Z","epoch_age_seconds":71473,"freshness":"FRESH","line1":"1 57511U 23113S   26145.16479336 -.00001820  00000+0 -56627-4 0  9998","line2":"2 57511  42.9959 303.9674 0000443 342.0336  18.0500 15.27585386155378","mean_motion":15.27585386,"eccentricity":4.43e-5,"inclination_deg":42.9959,"raan_deg":303.9674,"arg_perigee_deg":342.0336,"mean_anomaly_deg":18.05,"bstar":-5.6627e-5,"rev_number":15537,"period_min":94.266416345515,"perigee_km":482.72901863583,"apogee_km":483.33691829504,"semimajor_km":6861.1699684654,"source":"CELESTRAK","updated_at":"2026-05-25T13:38:18.330269Z"}}